Location: Rooftop Observatory
(39.0308°N, 87.1711°W)
Time: 20:18:16
(UTC-05:00)

Terra - Visible Passes

Search period start: 29 May 2017 00:00
Search period end: 08 June 2017 00:00
Orbit: 701 x 703 km, 98.2° (Epoch: 29 May)

Date Brightness Start Highest point End Pass type
(mag) Time Alt. Az. Time Alt. Az. Time Alt. Az.
29 May 1.8 22:38:44 57° ESE 22:39:28 67° ENE 22:44:12 10° N visible
30 May 4.3 00:17:37 12° W 00:17:38 12° W 00:19:18 10° WNW visible
30 May 3.5 21:43:05 16° E 21:44:52 19° ENE 21:48:11 10° NNE visible
30 May 2.5 23:21:58 43° WSW 23:22:16 43° W 23:26:49 10° NNW visible
31 May 2.2 22:26:19 42° ESE 22:27:19 49° ENE 22:31:55 10° N visible
01 Jun 4.0 00:05:12 16° W 00:05:19 16° W 00:08:12 10° NW visible
01 Jun 3.8 21:30:40 11° E 21:32:49 15° ENE 21:35:24 10° NNE visible
01 Jun 2.0 23:09:33 56° SW 23:10:02 59° W 23:14:45 10° NNW visible
02 Jun 2.6 22:13:54 31° ESE 22:15:12 37° ENE 22:19:34 10° N visible
02 Jun 3.6 23:52:47 21° W 23:53:01 21° W 23:56:38 10° NW visible
03 Jun 4.0 21:19:29 10° ENE 21:20:47 11° ENE 21:22:08 10° NE visible
03 Jun 1.7 22:57:09 64° S 22:57:50 80° WSW 23:02:37 10° NNW visible
04 Jun 3.0 22:01:31 23° E 22:03:06 28° ENE 22:07:09 10° N visible
04 Jun 3.2 23:40:24 28° WSW 23:40:45 28° W 23:44:51 10° NW visible
05 Jun 1.7 22:44:46 57° SE 22:45:41 77° ENE 22:50:27 10° N visible
06 Jun 3.4 21:49:08 17° E 21:51:02 22° ENE 21:54:39 10° NNE visible
06 Jun 2.7 23:28:01 36° WSW 23:28:31 37° W 23:32:57 10° NNW visible
07 Jun 2.0 22:32:24 45° ESE 22:33:33 57° ENE 22:38:13 10° N visible
